User: anonymous   Login
Location: Mentone
(34.5413°N, 85.5351°W)
Time: 22:05:07
(UTC-06:00)
Language:

NOSS 2-2 (E) - Orbit

View from above orbital plane
View from above orbital plane
View from above satellite
View from above satellite

Ground track
Ground track

The orbit data is extracted from the following two-line orbital elements,

1 21809U 91076E   15063.10642827 0.00000120  00000-0  54704-4 0    08
2 21809  63.3680  95.2473 0675000  13.8381 346.1619 13.41062090    06
Epoch (UTC): 04 March 2015 02:33:15
Eccentricity: 0.0675000
inclination: 63.3680°
perigee height: 600 km
apogee height: 1610 km
right ascension of ascending node: 95.2473°
argument of perigee: 13.8381°
revolutions per day: 13.41062090
mean anomaly at epoch: 346.1619°
orbit number at epoch: 0

The dashed part of the orbit path shows where the satellite is in the earth's shadow,  

DLR